| time (UTC) | temp C | wind direction | speed KPH | gust KPH | rain 1hr cm | rain 24hr cm | rain mn cm | humidity % | barometer mb |
| 20260502205736 | 16 | 356 | 1.6 | 6.4 | 0.00 | 0.00 | 0.00 | 39 | 1016.9 |
| 20260502202736 | 17 | 345 | 1.6 | 9.7 | 0.00 | 0.00 | 0.00 | 40 | 1017.1 |
| 20260502195736 | 17 | 323 | 4.8 | 8.0 | 0.00 | 0.00 | 0.00 | 40 | 1016.9 |
| 20260502192736 | 17 | 307 | 1.6 | 9.7 | 0.00 | 0.00 | 0.00 | 40 | 1016.7 |
| 20260502185736 | 18 | 284 | 3.2 | 9.7 | 0.00 | 0.00 | 0.00 | 37 | 1016.1 |
| 20260502182736 | 18 | 350 | 3.2 | 11.3 | 0.00 | 0.00 | 0.00 | 32 | 1016.0 |
| 20260502162735 | 22 | 43 | 1.6 | 8.0 | 0.00 | 0.00 | 0.00 | 25 | 1016.3 |
| 20260502122736 | 23 | 326 | 4.8 | 16.1 | 0.00 | 0.00 | 0.00 | 25 | 1019.2 |
| 20260502115737 | 23 | 344 | 6.4 | 11.3 | 0.00 | 0.00 | 0.00 | 29 | 1019.4 |
| 20260502112737 | 23 | 189 | 4.8 | 14.5 | 0.00 | 0.00 | 0.00 | 28 | 1019.8 |
| 20260502105736 | 23 | 29 | 4.8 | 17.7 | 0.00 | 0.00 | 0.00 | 30 | 1020.2 |
| 20260502102736 | 22 | 256 | 4.8 | 12.9 | 0.00 | 0.00 | 0.00 | 31 | 1020.6 |
| 20260502065736 | 15 | 179 | 0.0 | 6.4 | 0.00 | 0.00 | 0.00 | 50 | 1022.0 |
| 20260502062735 | 15 | 96 | 3.2 | 9.7 | 0.00 | 0.00 | 0.00 | 47 | 1022.1 |
| 20260502055736 | 16 | 334 | 1.6 | 4.8 | 0.00 | 0.00 | 0.00 | 44 | 1022.1 |
| 20260502052735 | 13 | 19 | 3.2 | 4.8 | 0.00 | 0.00 | 0.00 | 52 | 1022.0 |
| 20260502045736 | 12 | 318 | 0.0 | 1.6 | 0.00 | 0.00 | 0.00 | 53 | 1021.9 |
| 20260502042735 | 12 | 278 | 0.0 | 3.2 | 0.00 | 0.00 | 0.00 | 53 | 1021.9 |
| 20260502035736 | 13 | 184 | 0.0 | 1.6 | 0.00 | 0.00 | 0.00 | 54 | 1021.9 |
| 20260502032735 | 13 | 104 | 0.0 | 4.8 | 0.00 | 0.00 | 0.00 | 54 | 1021.8 |
| 20260502025736 | 13 | 278 | 0.0 | 3.2 | 0.00 | 0.00 | 0.00 | 55 | 1021.9 |
| 20260502022735 | 13 | 299 | 0.0 | 4.8 | 0.00 | 0.00 | 0.00 | 56 | 1021.8 |
| 20260502015735 | 14 | 125 | 1.6 | 3.2 | 0.00 | 0.00 | 0.00 | 60 | 1021.9 |
| 20260502012736 | 15 | 200 | 0.0 | 6.4 | 0.00 | 0.00 | 0.00 | 62 | 1021.7 |
| 20260502005735 | 15 | 52 | 0.0 | 4.8 | 0.00 | 0.00 | 0.00 | 66 | 1021.7 |
| 20260502002736 | 15 | 29 | 0.0 | 4.8 | 0.00 | 0.00 | 0.00 | 64 | 1021.7 |
| 20260501235737 | 15 | 337 | 1.6 | 4.8 | 0.00 | 0.00 | 0.00 | 65 | 1021.9 |
| 20260501232736 | 15 | 329 | 3.2 | 4.8 | 0.00 | 0.00 | 0.00 | 65 | 1021.9 |
| 20260501225736 | 16 | 295 | 0.0 | 4.8 | 0.00 | 0.00 | 0.00 | 64 | 1022.0 |
| 20260501222736 | 16 | 9 | 0.0 | 4.8 | 0.00 | 0.00 | 0.00 | 62 | 1022.1 |
| 20260501215735 | 17 | 3 | 0.0 | 1.6 | 0.00 | 0.00 | 0.00 | 62 | 1022.0 |
| 20260501212735 | 17 | 305 | 0.0 | 3.2 | 0.00 | 0.00 | 0.00 | 63 | 1021.9 |